Regional Weather Roundup
Issued by NWS

Home | Current Version | Previous Version | Graphics & Text | Print | Product List | Glossary On
Versions: 1 2 3 4 5 6 7 8 9 10 11 12 13 14 15 16 17 18 19 20 21 22 23 24 25 26 27 28 29 30 31 32 33 34 35 36 37 38 39 40 41 42 43 44 45 46 47 48 49 50
000
ASUS43 KFSD 140610
RWRSD

WEATHER ROUNDUP FOR SOUTH DAKOTA
NATIONAL WEATHER SERVICE SIOUX FALLS SD
1200 AM CST THU DEC 14 2017

NOTE: "FAIR" INDICATES FEW OR NO CLOUDS BELOW 12,000 FEET WITH NO
SIGNIFICANT WEATHER AND/OR OBSTRUCTIONS TO VISIBILITY.


SDZ001>005-009-010-012>017-140700-
NORTHWEST AND NORTH CENTRAL SOUTH DAKOTA

CITY           SKY/WX    TMP DP  RH WIND       PRES   REMARKS
BUFFALO          N/A     36  27  69 W16       29.99S
FAITH            N/A     34  27  75 NW12      30.03S WCI  25
MOBRIDGE       CLOUDY    26  23  88 NW7       29.98S WCI  18
$$

SDZ012>016-024>037-041>051-057-063-072>074-140700-
SOUTHWEST AND SOUTH CENTRAL SOUTH DAKOTA

CITY           SKY/WX    TMP DP  RH WIND       PRES   REMARKS
RAPID CTY ARPT CLOUDY    36  27  69 NW21G29   30.09R
PIERRE         PTCLDY    29  26  89 W3        30.03F
CUSTER         CLOUDY    30  17  58 VRB5      30.05F WCI  25
ELLSWORTH AFB  FLURRIES  35  30  83 NW23G35   30.07  WCI  23
PHILIP         CLOUDY    36  26  67 W8        30.07R
PINE RIDGE     CLOUDY    38  26  62 NW8       30.10S
SPEARFISH      FLURRIES  34  25  69 W14       30.11F WCI  24
WINNER         FAIR      29  23  78 W5        30.05S WCI  24
$$

SDZ004>011-016>023-039-040-140700-
NORTHEAST SOUTH DAKOTA

CITY           SKY/WX    TMP DP  RH WIND       PRES   REMARKS
ABERDEEN       CLOUDY    28  28 100 CALM      30.00R
WATERTOWN      CLOUDY    25  24  96 N6        29.95S WCI  18
BROOKINGS      CLOUDY    26  23  88 N8        29.97S WCI  18
SISSETON         N/A     21  17  84 N7        29.99R WCI  12
$$

SDZ017-020-022-023-036>040-048>070-140700-
SOUTHEAST SOUTH DAKOTA

CITY           SKY/WX    TMP DP  RH WIND       PRES   REMARKS
SIOUX FALLS    CLOUDY    30  26  85 NW7       29.99R WCI  23
HURON          CLOUDY    33  26  75 W3        30.00R
CHAMBERLAIN    CLOUDY    35  29  80 W7        30.04S WCI  29
MITCHELL       CLOUDY    35  25  66 NW8       30.03R WCI  29
YANKTON        CLOUDY    35  24  64 NW12      30.02R WCI  27
$$

ABBREVIATIONS USED IN REMARKS
   TC - TEMPERATURE IN CELSIUS
  WCI - WIND CHILL INDEX
   HX - HEAT INDEX
  VSB - VISIBILITY




USA.gov is the U.S. government's official web portal to all federal, state and local government web resources and services.